Regional Weather Roundup
Issued by NWS Pendleton, OR

Home | Current Version | Previous Version | Text Only | Print | Product List | Glossary On
Versions: 1 2 3 4 5 6 7 8 9 10 11 12 13 14 15 16 17 18 19 20 21 22 23 24 25 26 27 28 29 30 31 32 33 34 35 36 37 38 39 40 41 42 43 44 45 46 47 48 49 50
000
ASUS46 KPDT 271625
RWRPDT
PENDLETON REGIONAL WEATHER ROUNDUP
NATIONAL WEATHER SERVICE PENDLETON OREGON
900 AM PDT WED MAY 27 2015

NOTE: FAIR INDICATES FEW OR NO CLOUDS BELOW 12,000 FEET WITH NO
SIGNIFICANT WEATHER AND/OR OBSTRUCTIONS TO VISIBILITY.

# INDICATES UNOFFICIAL STATION AND DATA

WAZ520-271710-
EAST SLOPES OF WASHINGTON CASCADES

CITY            SKY/WX      TMP DP  RH  WIND    PRES   REMARKS
#BULLFROG 2SW   N/A         60  48  64  N1      27.65F
#BUMPING DAM    N/A         49  N/A N/A CALM    N/A
#CLE ELUM HS    N/A         58  48  69  W3      29.99S
#CLE ELUM LAKE  N/A         58  49  72  CALM    29.98S
#CLIFFDEL 2NW   N/A         52  45  77  CALM    N/A
#GLENWOOD       N/A         53  53  100 CALM    30.01S
#NELSON         N/A         60  51  72  N1      30.01S
#NELSON 3SW     N/A         56  49  77  CALM    30.19F
#NILE           N/A         57  47  69  W2      29.28F
#RONALD 2NW     N/A         56  11  16  S1      29.92S
#SNOWDEN        N/A         56  43  62  CALM    N/A
#TEANAWAY 4NE   N/A         57  52  83  CALM    N/A
#TROUT LAKE 1NE N/A         59  52  78  CALM    30.01R
$$

WAZ521-271710-
SIMCOE HIGHLANDS

CITY            SKY/WX      TMP DP  RH  WIND    PRES   REMARKS
#BICKLETON HS   N/A         60  40  47  N2      N/A
#CENTERVILLE 4W N/A         61  51  70  W1      29.78S
#CENTERVILLE 1SWN/A         61  50  67  CALM    29.96F
#GOLDENDALE     N/A         55  50  83  CALM    N/A
#GOODNOE HILLS  N/A         64  51  63  W9      N/A
#LYLE 6NE       N/A         57  52  83  S1      29.98S
$$

WAZ026-271710-
KITTITAS VALLEY

CITY            SKY/WX      TMP DP  RH  WIND    PRES   REMARKS
ELLENSBURG AP   SUNNY       64  51  63  VRB3    30.03S
YTC-OPS AREA    N/A         60  46  60  NW7     30.03R
#ELLENSBURG CWU N/A         63  50  62  N6      29.94F
#ELLENSBURG 3NE N/A         59  52  78  CALM    30.03S
#ELLENSBURG 1E  N/A         60  51  72  CALM    N/A
#KITTITAS 4N    N/A         62  54  75  NW2     28.34S
#KITTITAS 3S    N/A         60  52  75  CALM    29.98F
#THORP 6N       N/A         57  50  77  N7      30.01R
$$

WAZ027-271710-
YAKIMA VALLEY

CITY            SKY/WX      TMP DP  RH  WIND    PRES   REMARKS
SUNNYSIDE AP    SUNNY       65  49  56  W3      30.01S
YAKIMA AIRPORT  SUNNY       68  47  47  W6      30.02F
#DONALD 2NE     N/A         77  36  23  W1      28.86S
#GRANDVIEW      N/A         67  50  54  NW1     30.00S
#MABTON         N/A         66  54  65  NW3     30.01R
#NACHES 2SW     N/A         63  50  62  N1      30.04R
#SELAH 8E       N/A         67  49  52  E2      N/A
#TERRACE HTS    N/A         64  51  63  CALM    29.94S
#TOPPENISH      N/A         65  48  54  N6      29.90S
#WAPATO 4NE     N/A         77  36  23  W1      28.86S
#WEST VALLEY    N/A         64  48  56  NE1     29.97S
#W YAKIMA       N/A         65  50  58  E2      29.98F
#WHITE SWAN 5E  N/A         67  55  65  CALM    29.99S
#WILEY CITY 3W  N/A         65  48  54  CALM    29.99S
$$

WAZ028-271710-
LOWER COLUMBIA BASIN...WASHINGTON

CITY            SKY/WX      TMP DP  RH  WIND    PRES   REMARKS
HANFORD         PTCLDY      69  49  49  N6      30.00S
PASCO           SUNNY       66  52  61  CALM    30.01S
RICHLAND AWOS   SUNNY       68  57  68  CALM    30.01S
#BASIN CITY 5SW N/A         64  57  78  E1      30.01S
#BENTON CITY    N/A         66  54  65  W2      29.91R
#CONNELL 5N     N/A         67  54  63  CALM    29.99S
#CONNELL 5NW    N/A         63  54  72  CALM    29.96R
#ELTOPIA        N/A         68  58  70  CALM    29.96S
#ELTOPIA 6NW    N/A         63  56  78  E3      28.98S
#KAHLOTUS       N/A         62  54  75  CALM    30.00R
#KENNEWICK      N/A         60  48  64  N1      27.65F
#KENNEWICK 3S   N/A         65  54  68  CALM    29.99R
#PATERSON       N/A         62  53  72  SW3     29.99S
#PROSSER        N/A         65  47  52  W6      29.98S
#SAGEMOOR 2W    N/A         67  58  73  CALM    29.84S
#TOUCHET 2S     N/A         66  58  75  N1      29.98S
#WEST PASCO     N/A         71  58  64  CALM    30.00S
$$

WAZ029-271710-
FOOTHILLS OF THE BLUES...WASHINGTON

CITY            SKY/WX      TMP DP  RH  WIND    PRES   REMARKS
WALLA WALLA AP  PTCLDY      64  52  65  S6      30.03R
#DAYTON SCHOOL  N/A         61  48  62  SW2     30.04R
#LOWDEN 2SE     N/A         66  55  68  CALM    29.98S
#PLEASANT VIEW 1N/A         64  54  70  S3      30.03R
#PRESCOTT       N/A         65  55  70  CALM    30.00S
#SUDBURY        N/A         67  N/A N/A CALM    N/A
#WAITSBURG 8N   N/A         66  35  32  SE3     29.88S
#WALLA WALLA U  N/A         66  53  63  CALM    29.99S
#WHITMAN MISSIONN/A         65  55  70  CALM    30.01R
$$

WAZ030-271710-
BLUE MOUNTAINS...WASHINGTON

CITY            SKY/WX      TMP DP  RH  WIND    PRES   REMARKS
#DIXIE 5SE      N/A         54  47  77  W3      29.99R
$$

ORZ009-041-WAZ024-271710-
COLUMBIA RIVER GORGE

CITY            SKY/WX      TMP DP  RH  WIND    PRES   REMARKS
HOOD RIVER AP   SUNNY       63  52  67  CALM    30.04F
THE DALLES AP   SUNNY       65  50  58  N5      30.02F
#ARLINGTON AIRPON/A         63  51  65  W10     29.82S
#CELILO DOT     N/A         65  51  60  NW2     N/A
#MOSIER 1S      N/A         62  46  56  CALM    30.03S
#MURDOCK        N/A         64  55  73  W9      30.03F

$$

ORZ510-271710-
NORTH CENTRAL OREGON

CITY            SKY/WX      TMP DP  RH  WIND    PRES   REMARKS
#CHENOWITH 1W   N/A         58  47  67  NW10    N/A
#COW CYN RST AREN/A         59  38  45  CALM    N/A
#DUFUR 9E       N/A         57  47  69  W6      30.05S
#GRASS VALLEY 1SN/A         60  48  64  W3      30.01F
#KENT DOT       N/A         59  42  53  NW2     N/A
#MAUPIN SCHOOL  N/A         61  47  60  CALM    30.05F
#MORO SCHOOL    N/A         60  53  78  W7      30.04F
#SHANIKO 5WSW   N/A         60  37  42  CALM    N/A
#SHANIKO 4NW    N/A         57  44  62  N3      30.06S
#TYGH VALLEY 2NEN/A         59  48  67  CALM    30.00F
#WAPANITIA AIRPON/A         60  48  64  CALM    30.01S
#WASCO DOT      N/A         64  47  54  W8      N/A
#WASCO AIRPORT  N/A         61  48  62  NW5     N/A
#WASCO 5NE      N/A         62  50  65  W5      29.99F
$$

ORZ511-271710-
CENTRAL OREGON

CITY            SKY/WX      TMP DP  RH  WIND    PRES   REMARKS
BEND AIRPORT    SUNNY       59  41  51  CALM    30.06S
MADRAS AIRPORT  SUNNY       57  45  64  N6      30.07S
PRINEVILLE AP   SUNNY       59  43  55  CALM    30.05S
REDMOND AIRPORT SUNNY       58  43  57  CALM    30.05S
#BEND 1SW       N/A         56  45  66  CALM    N/A
#BEND-AWBREY    N/A         56  44  64  S1      29.95F
#BEND-KIM LN    N/A         56  46  69  CALM    30.03S
#CROOKED RVR RANN/A         61  47  60  CALM    29.96F
#CULVER         N/A         58  47  67  CALM    30.02R
#LAKE BILLY CHINN/A         60  26  27  N5      30.13S
#POWELL BUTTE 3EN/A         54  43  66  N2      N/A
#POWELL BUTTE   N/A         69  50  51  N1      29.68R
#PRINEVILLE 3N  N/A         58  48  69  W1      29.94F
#WARM SPRINGS   N/A         63  48  58  CALM    30.01F

$$


ORZ509-271710-
EAST SLOPES OF OREGON CASCADES

CITY            SKY/WX      TMP DP  RH  WIND    PRES   REMARKS
#BLUE BOX PASS  N/A         47  -5  11  CALM    N/A
#CAMP SHERMAN   N/A         55  44  66  CALM    30.00F
#LA PINE 4NW    N/A         53  42  66  CALM    30.02F
#SISTERS AIRPOR N/A         58  51  77  CALM    30.17S
#SISTERS ODOT   N/A         57  N/A N/A NW1     N/A
#SISTERS 1NW    N/A         56  41  57  NE12    N/A
#SISTERS 3N     N/A         58  46  64  SE5     30.04F
#SUNRIVER       N/A         55  45  69  S2      29.86F
#TUMALO 3W      N/A         59  45  60  E2      29.84F
#WANOGA BUTTE D N/A         51  27  39  SW2     N/A

$$

ORZ044-271710-
LOWER COLUMBIA BASIN...OREGON

CITY            SKY/WX      TMP DP  RH  WIND    PRES   REMARKS
HERMISTON       MOCLDY      65  49  56  SW10    30.01S
#BOARDMAN SCHOOLN/A         66  53  63  SW3     30.02S
#ECHO 8SW       N/A         64  51  63  W5      30.02S
#IONE SCHOOL    N/A         63  47  56  W5      29.99S
#IRRIGON 4NW    N/A         64  55  73  E3      N/A
#UMATILLA SCHOOLN/A         69  57  66  CALM    30.03F
#UMATILLA       N/A         65  50  58  CALM    29.93S
$$

ORZ507-271710-
NORTHERN FOOTHILLS OF THE BLUES

CITY            SKY/WX      TMP DP  RH  WIND    PRES   REMARKS
PENDLETON AIRPT CLOUDY      60  50  69  CALM    30.03R
#ADAMS 3WNW     N/A         61  53  75  W2      30.00S
#ATHENA         N/A         61  51  70  CALM    30.02S
#CAYUSE         N/A         59  50  72  E5      29.99S
#HELIX SCHOOL   N/A         60  51  72  SW2     29.98S
#HELIX 3N       N/A         60  51  72  S7      30.00S
#HELIX 6SW      N/A         59  52  78  CALM    30.03
#HOLDMAN 6E     N/A         59  51  75  N2      29.81R
#M-F FERNDALE   N/A         65  54  68  CALM    30.01S
#M-F GROVE ELEM N/A         64  49  58  CALM    30.01R
#M-FREEWATER 5SEN/A         63  53  70  CALM    30.02S
#PENDLETON DNTN N/A         61  52  72  CALM    30.02S
#PDT AQUATIC CTRN/A         61  51  70  E1      30.01S
#PENDLETON 5NE  N/A         60  54  81  CALM    30.00S
#PDT SUNRIDGE   N/A         62  52  70  CALM    30.03S
#PENDLETON 7NW  N/A         59  50  72  CALM    29.97S
#PILOT ROCK     N/A         60  50  69  N1      30.05R
#TUTUILLA       N/A         63  56  78  N3      30.02S
#UMAPINE 2E     N/A         66  55  68  SW1     29.99R
#WESTON SCHOOL  N/A         58  47  67  W2      29.99S

$$

ORZ508-271710-
SOUTHERN FOOTHILLS OF THE BLUES

CITY            SKY/WX      TMP DP  RH  WIND    PRES   REMARKS
#AJAX           N/A         59  42  53  CALM    29.97F
#CONDON 5W      N/A         54  45  71  NW6     30.03S
#FOSSIL SCHOOL  N/A         58  48  69  CALM    30.01F
#HEPPNER EOC    N/A         62  49  62  NW3     29.92R
#HEPPNER 4NE    N/A         57  48  72  W2      29.98S
#LEXINGTON 2SE  N/A         65  52  63  CALM    30.01S
#RUGGS 5NE      N/A         63  50  62  W2      30.20S
#RUGGS 2SW      N/A         60  49  67  N3      30.00S

$$

ORZ502-503-271710-
BLUE MOUNTAINS

CITY            SKY/WX      TMP DP  RH  WIND    PRES   REMARKS
MEACHAM         CLOUDY      54  46  74  CALM    30.06S
#BATTLE MTN DOT N/A         53  50  89  CALM    N/A
#HEPPNER 15SE   N/A         56  47  72  NW5     29.96S
#LONG CREEK HS  N/A         56  50  80  CALM    30.02R
#N POWDER DOT   N/A         60  47  62  NE12    N/A
#PIKES PEAK     N/A         52  48  86  SW6     27.99S
#TOLLGATE       N/A         48  44  86  CALM    30.00S
#TROY SCHOOL    N/A         63  51  65  CALM    29.83F
#UKIAH          N/A         53  49  86  CALM    30.03F
#WESTON 4E      N/A         55  50  83  CALM    29.93S
$$

ORZ505-271710-
JOHN DAY BASIN

CITY            SKY/WX      TMP DP  RH  WIND    PRES   REMARKS
JOHN DAY        MOCLDY      58  46  64  CALM    30.06S
#JOHN DAY KJDY  N/A         60  56  87  CALM    30.04F
#DAYVILLE SCHOOLN/A         60  44  55  CALM    30.01S
#MITCHELL       N/A         61  52  72  CALM    30.18S
#MONUMENT HS    N/A         63  48  58  CALM    30.04F
#MT. VERNON 5SE N/A         57  45  64  NW1     30.02S
$$

ORZ506-271710-
OCHOCO AND JOHN DAY HIGHLANDS

CITY            SKY/WX      TMP DP  RH  WIND    PRES   REMARKS
#BUCK CREEK DOT N/A         58  58  100 CALM    N/A
#PAULINA SCHOOL N/A         57  45  64  CALM    30.04R
#PINE MTN OBS   N/A         48  39  71  S7      N/A
#PRAIRIE CITY   N/A         59  47  64  CALM    30.00F
#SENECA         N/A         52  N/A N/A N2      N/A
#SENECA 9NW     N/A         52  46  80  CALM    29.94F
$$

ORZ049-271710-
GRANDE RONDE VALLEY

CITY            SKY/WX      TMP DP  RH  WIND    PRES   REMARKS
LA GRANDE       PTCLDY      59  43  55  N5      30.04S
#COVE           N/A         57  52  83  CALM    30.04F
#COVE SCHOOL    N/A         59  49  69  CALM    30.02F
#ELGIN 3N       N/A         55  48  77  CALM    30.02R
#ELGIN 1E       N/A         57  48  72  CALM    N/A
#ISLAND CITY 4N N/A         57  54  90  CALM    30.06R
#LADD CYN DOT   N/A         57  48  72  CALM    N/A
#LA GRANDE ELEM N/A         59  47  64  CALM    30.05F
#UNION 1S       N/A         58  49  72  CALM    29.89F
$$

ORZ050-271710-
WALLOWA COUNTY

CITY            SKY/WX      TMP DP  RH  WIND    PRES   REMARKS
JOSEPH AIRPORT  N/A         57  45  64  N3      30.06S
#ENTERPRISE HS  N/A         58  49  72  CALM    30.06S
#IMNAHA SCHOOL  N/A         60  50  69  SW2     30.02S
#IMNAHA 10S     N/A         59  50  72  NE1     30.02S
#JOSEPH 3N      N/A         54  44  69  NW3     30.07R
#JOSEPH 3W      N/A         56  45  66  E2      29.91R
#LOSTINE        N/A         57  49  75  CALM    29.79S
#MT HOWARD 8000 N/A         39  36  89  VRB2    30.11R
#PROMISE 1S     N/A         56  44  64  S1      30.07R
#SHEEP RDG 7000 N/A         41  37  86  CALM    30.01R
#WALLOWA SCHOOL N/A         59  48  67  CALM    30.89F



$$



USA.gov is the U.S. government's official web portal to all federal, state and local government web resources and services.